Location: Emblem
(62.4273°N, 6.4710°E)
Time: 01:27:18
(UTC+02:00)

UWE-3 - Pass Details

Date: 24 March 2023
Orbit: 577 x 669 km, 97.7° (Epoch: 06 June)

Event Time Altitude Azimuth Distance (km) Brightness Sun altitude
Rises 04:45:46 0° 17° (NNE) 3,040 ? -11.7°
Reaches altitude 10° 04:48:04 10° 12° (NNE) 2,117 ? -11.4°
Maximum altitude 04:52:33 51° 298° (WNW) 844 ? -11.0°
Enters shadow 04:56:33 12° 224° (SW) 1,917 ? -10.5°
